Location: Asheville, NC
(35.6000°N, 82.5500°W)
Time: 19:40:10
(UTC-04:00)

Vanguard 1 Rocket - Pass Details

Date: 15 March 2018
Orbit: 653 x 4224 km, 34.3° (Epoch: 23 June)

Event Time Altitude Azimuth Distance (km) Brightness Sun altitude
Rises 18:52:16 0° 244° (WSW) 3,458 12.0 8.4°
Reaches altitude 10° 18:54:18 10° 241° (WSW) 2,730 11.4 8.0°
Maximum altitude 19:00:46 66° 159° (SSE) 1,530 8.6 6.7°
Drops below altitude 10° 19:13:21 10° 81° (E) 5,096 10.6 4.1°
Sets 19:18:38 0° 80° (E) 6,698 11.1 3.1°
